CAPE
3412 3192 2964 2656 2728 2645 2546 2671 2669 2655 2766 2916 3189 3252 3065 2745 2663 2052 2251 2055 2089 2042 1989 2372 2457 2658 2275 2311 1788 2013 2614 2695 2727 2856 3315 3305 3151 2833 2371 2890 3294 3278 3222 3165 2860 2903 3152 3356 3304 3290 3345 3386 3343 2982 2524 2664 3366 3368 3094 3188 3349 3485 3568 3547 3400 3088 3112 2670 2508 2397 2079 2078 1754 1938 1917 1735 1992 2288 2724 3172 2912 2637 2574 2593 2588
3382 3209 2966 2764 2645 2817 2680 2686 2795 2901 2835 2987 3149 3220 3178 2877 2863 2587 1943 2215 2131 2286 2463 2230 2260 2387 2249 2088 2113 1869 2558 2773 2383 2468 3182 3321 3261 2950 2734 2632 3353 3441 3383 3309 3386 3400 3173 3598 3769 3557 3466 3474 3120 3091 2791 2380 2632 3148 3300 3194 3251 3406 3498 3541 3598 3548 3236 3055 2758 2639 2636 2678 2648 2792 2943 2924 2893 3241 2898 2668 2522 2752 3016 3306 3323
3213 3220 2993 2882 2909 3076 2899 3003 3010 2934 2734 3076 3036 2920 3072 3209 3026 2826 2211 2171 2224 2380 2770 2504 2493 2638 2446 2224 2543 2341 2701 2697 2598 2510 2842 3268 3400 2796 2532 2877 3279 3441 3320 3248 3306 3403 3447 3605 3626 3637 3223 3253 3559 3403 2796 2520 2339 2401 2455 2826 3113 3150 3132 3454 3612 3499 3359 3226 3115 2934 2748 2941 2825 2997 3208 3110 3487 3773 3518 3266 3028 2742 2893 2832 2724
3096 3352 3110 3207 3257 3359 3179 3036 2836 2839 2948 2890 2852 2612 2953 3509 3140 2886 2539 2091 2391 2488 2579 2776 2884 2969 2705 2541 2817 2758 2789 3004 2962 2565 2570 3061 3418 3400 2885 2883 3169 3240 2889 2932 3059 3160 3317 3570 3583 3084 3034 3119 3454 3737 3376 2904 2532 2479 2396 2424 2488 2336 2448 2464 3202 3836 3784 3626 3786 3754 3685 3706 3863 3666 3761 3793 3446 3363 3471 3489 3371 3382 3304 2904 3029
3168 3495 3416 3323 3043 3154 3019 2935 2787 2871 2778 2600 2693 2681 2762 2963 3121 3006 2720 2062 2036 2585 2635 2883 3201 3377 3050 2930 3153 3302 3140 3261 3318 2579 2485 2875 3408 3485 3308 3131 3277 3478 3280 3179 3239 3375 3400 3377 3386 3347 3210 3232 3451 3728 3421 3240 3208 2867 2971 3266 3346 3349 3353 3329 3484 3668 3855 3692 3558 3721 3933 3803 3772 3774 3798 3760 3687 3784 3644 3662 3082 3440 3244 2842 2818
3138 3503 3335 3194 3222 3384 3099 2805 2784 2779 2709 2524 2571 2747 2562 2290 2778 2970 2738 2258 1946 2418 2896 2828 3058 3565 3718 3392 3356 3731 3550 3470 3424 3054 2361 2559 3057 3190 3166 3150 3112 3580 3559 3464 3370 3334 3296 3444 3308 3184 3177 3130 3328 3344 3546 3378 3415 3558 3508 3427 3445 3642 4020 4111 4066 3958 3707 3620 3488 3370 3606 3440 3714 3782 3777 3764 3680 3392 3367 3211 3390 3508 3859 3553 3017
3222 3457 3399 3155 3265 3497 3296 2776 2738 2894 2954 2544 2657 2704 2345 2026 2177 2779 2750 2351 1999 2088 2778 3076 2878 3417 3808 3817 3740 3918 3911 3713 3910 3696 2916 2515 2889 3176 2699 2962 3240 3351 3608 3504 3075 3052 3207 3119 3200 3214 3269 3225 3232 3272 3388 3631 3528 3571 3863 4006 3998 4001 3931 3878 3779 3780 3686 3670 3645 3480 3407 3374 3502 3785 4035 3732 3807 3582 3640 3538 3781 3623 4147 3982 3907
3120 3454 3428 3135 3471 3550 3552 3250 2635 3048 3051 3138 2819 2481 2285 2010 1989 2309 2697 2464 2134 2007 2253 2866 2952 3101 3674 3855 3829 4026 4210 3963 4150 4119 3640 2823 2520 3092 3176 2660 2831 3235 3186 3387 2682 2050 2186 2542 2558 2874 3166 3582 3682 3461 3264 3079 3653 3820 3837 3991 4083 4220 4279 3880 3624 3632 3702 3512 3542 3391 3396 3912 4028 3742 3843 4005 4171 4076 3960 3845 3662 3621 3694 4218 4009
3145 3424 3622 3472 3911 4052 3932 3474 3016 3097 3329 3332 2895 2597 2523 2411 2260 2498 2897 2694 2292 1918 1888 2232 2969 3079 3353 3689 3760 3602 3960 3938 3978 4089 4165 3474 2789 2672 3348 3177 2813 2811 3038 2748 2627 2289 1667 1608 1772 1988 2919 4342 4039 4227 3854 3844 3617 3743 4073 4234 4345 4298 4353 4154 3752 3633 3657 3633 3702 3764 3682 3900 4056 4392 4204 4390 4186 4135 3918 3859 3950 3577 3316 3331 4046
3436 3524 3709 3854 4076 4240 4246 4103 3551 3444 3398 3527 3582 3081 2775 2679 2321 2372 2895 2928 2748 2421 2163 1970 2452 3108 3278 3637 3720 3516 3599 4001 4008 3739 3974 3923 3242 2499 2945 3374 3164 2642 2854 2938 2286 2183 2194 1682 1237 2016 2604 3885 4366 3935 3923 3893 3856 3648 3556 3894 4405 4500 4216 4095 3849 3574 3645 3707 3654 3624 3549 3555 3586 3933 4147 3714 3691 3900 4012 4084 3865 3791 3840 3656 4113
3513 3723 4002 4088 4287 4459 4398 4335 3922 3945 3860 3736 3675 3578 3508 3241 3308 3360 3296 3271 3388 3322 2583 2038 2033 2529 3162 3475 3710 3652 3285 3570 3735 3668 3684 3618 3576 3213 2665 3191 3635 3246 2564 3024 2900 1985 1834 2175 2251 1938 3405 3931 4786 3858 3806 3692 3608 3347 3124 2681 2751 4339 4365 4022 3934 3775 3647 3679 3684 3741 3745 3856 3849 3938 3990 3720 3487 3873 3974 4103 3994 3987 3980 3877 3768
3612 4031 4059 4237 4449 4686 4585 4475 4281 4148 4129 4098 4162 3904 3636 3559 3618 3531 3150 3330 3721 3229 2783 2590 2722 2194 2696 3210 3485 3539 3420 3098 3384 3498 3553 3513 3584 3680 2797 2678 3138 3328 3189 2587 2797 2676 1942 1508 1678 1950 2170 2732 3180 4743 3722 3518 3426 3141 2842 2417 2088 1832 1707 2798 3932 4294 4128 3853 3773 3836 3802 3832 3984 4206 4108 4046 4338 4005 3890 3822 3936 3922 3798 3505 3609
3644 3970 4130 4386 4650 4852 4806 4825 4576 4312 4400 4510 4477 4295 4029 3878 3655 3497 3274 3561 3640 3676 3602 2963 2959 2709 2344 3043 3001 3314 3415 2849 3059 3326 3411 3396 3370 3484 2788 2550 2442 3064 3260 3026 2500 2842 3014 2302 1511 1312 1569 2975 4076 3677 4689 4560 3490 3113 2784 2598 2442 2258 2126 2044 1893 2257 3326 3944 4243 4208 4168 4240 4329 4381 4449 4545 4474 4093 4226 4061 3877 3693 3651 3577 3508
3847 3887 4243 4458 4618 4913 5037 4939 4711 4659 4750 4746 4775 4536 4254 4143 4014 3838 3777 3930 4034 3986 3477 3416 3308 3562 3015 2994 3598 3092 3429 2976 2890 3072 3181 3179 3153 3293 3222 2518 2559 2444 2860 3186 3024 2870 3241 3387 2973 2354 2103 2784 3742 3999 4453 4826 5228 4418 4068 3773 3585 3390 2990 2656 2340 2116 2002 2335 3034 3468 3864 4207 4461 4511 4679 4616 4165 4138 3804 3709 3701 3405 3281 3260 3205
3902 4021 4174 4508 4763 4896 4936 5116 5017 4978 5021 4938 4951 4815 4606 4512 4343 4185 3963 3936 4145 4276 3962 3792 3755 3732 3312 2978 3189 2909 2800 3173 3050 2981 2962 2969 2905 2758 3167 2559 2475 2678 2826 3128 3683 3480 3534 3670 3733 3490 3491 3447 3265 3829 4509 4752 4776 4874 5063 4634 4282 4251 4214 3567 3236 3077 2895 2697 2576 3186 3579 3897 4190 4382 4512 4458 4520 4272 4026 3684 3250 2873 2713 2607 2476
3914 4208 4329 4502 4688 4816 4782 4792 5006 5032 5086 5066 5044 4892 4776 4681 4599 4336 3984 3642 3933 4187 4325 3966 4024 3987 3862 3469 3036 3152 2678 2857 3090 3097 2998 2818 2733 2532 2847 2751 2765 2755 2918 3113 3390 3958 4062 4112 4362 4184 4091 4363 4229 3789 3963 4727 4790 4802 4773 4703 4515 4424 4476 4411 4158 3808 3818 3741 3678 3706 3886 4891 4675 5311 5086 4008 3736 3540 3295 2953 2408 2252 2339 2322 2363
4035 4247 4307 4514 4637 4834 4737 4674 5056 4998 5096 5038 5003 4928 4884 4853 4662 4558 4176 3730 3673 3975 4283 3950 4107 4136 4035 3968 3498 3174 3077 2476 2698 2964 2962 2884 2662 2732 2970 3083 3199 3119 3163 3246 3379 3603 3933 4288 4465 4465 4559 4637 4484 4080 3780 3668 4425 4222 4191 4292 4365 4117 3850 3988 3749 3715 3643 3380 3537 3523 3516 3545 3529 3436 3406 3393 3253 2743 2584 2250 2170 1746 1553 1608 1572
4041 4364 4271 4508 4681 4814 4888 4904 5014 4975 5048 5069 5004 4891 4879 4840 4675 4695 4452 3901 3218 3450 3860 4029 3990 4051 3937 4098 3828 3736 3280 4430 2575 2633 2802 2749 2652 3084 3258 3314 3382 3424 3411 3474 3571 3787 3922 4173 4556 4566 4646 4747 4330 4177 4007 3860 4359 4195 3998 3798 3938 4061 4155 3865 4506 4293 3312 3216 3100 3092 3293 3475 3630 3824 3868 3235 2655 2381 2098 2003 1589 1467 1432 1345 1666
4225 4455 4364 4503 4712 4761 4833 4872 4990 4972 5066 5023 4837 4872 4926 4907 4675 4689 4318 3976 3464 3172 3307 3591 3758 3881 3932 3956 3993 3711 3523 4442 2883 2657 2515 2555 2538 3426 3422 3439 3465 3458 3490 3682 3807 3762 3897 4219 4488 4489 4572 4766 4422 4244 4066 4022 4362 4348 4174 4043 3959 4066 4077 4454 5209 4804 4380 3979 3963 3910 3960 4080 4170 3992 3380 2678 2408 2144 1912 1678 1521 1333 1764 1857 1906
4389 4539 4407 4459 4608 4738 4712 4987 5066 4917 5056 4926 4934 4968 4733 4619 4642 4516 4206 3991 3596 3199 2970 3096 3379 3461 3480 3629 3645 3772 3888 3528 3082 2999 2824 2611 2467 3388 3647 3513 3484 3596 3810 3844 4090 3950 3944 4111 4511 3723 3807 4059 4183 4129 4069 3950 4267 4376 4263 4238 4180 4226 4379 4574 4564 5677 5778 5173 5160 5146 5025 4072 4129 3528 3476 3520 3062 2136 1818 1473 1432 1870 1557 1408 622
4411 4604 4518 4377 4527 4700 4646 4831 4849 4748 4891 4786 4628 4524 4511 4543 4430 4442 4321 3881 3776 3590 2988 2964 2667 3248 3200 3278 3246 3435 3616 4181 3393 3168 3104 2914 2646 2581 3579 3655 3638 3837 3912 3825 3868 3902 4092 4025 4141 4018 3675 3552 3636 3714 3738 3730 3561 4019 4180 4184 4313 6450 4584 4934 5402 4618 5042 4748 4328 4212 4008 3382 3039 2938 2666 2292 1988 2408 2298 1617 1824 1186 351 50 0
4405 4717 4591 4346 4432 4518 4530 4854 4825 4690 4814 4851 4856 4656 4618 4397 4249 4298 4086 4083 3991 3920 3792 3497 3032 3065 3224 3215 3433 3178 3215 3593 3561 3492 3278 3131 2902 2646 3196 3577 3680 3845 4105 4164 4027 3868 3952 4333 4503 4474 4020 3783 3361 3260 3264 3270 3326 3294 4259 3584 3488 3456 3845 3523 4105 4358 4428 4505 4081 3670 3434 3006 2427 2639 2396 2072 1661 1516 1507 1548 1487 652 96 18 129
4492 4672 4711 4323 4671 4684 4524 4507 4551 4335 4528 4814 4822 4605 4624 4512 4337 4407 4376 4269 4212 4077 4250 4039 3672 3508 3400 3461 3510 4124 4723 4809 4498 3522 3297 3216 3114 2938 2744 3055 3235 4036 3932 4142 4184 4123 4392 4084 4292 4720 3833 3739 3545 3379 3219 3065 2954 2952 2950 2979 2984 2873 2794 3023 3221 3531 3859 3886 3411 3238 2966 3162 3033 2784 2283 2002 1864 1667 1681 1727 1294 468 718 708 625
4525 4689 4588 4524 4311 4249 4287 4538 4633 4288 4591 4857 4975 4801 4672 4560 4407 4449 4566 4308 4166 4208 4329 4300 4077 3749 3748 3802 4079 4356 4817 4665 3916 3440 3426 3294 3210 3077 2923 2721 2934 3395 3674 4036 3947 3724 4132 4065 4272 4158 3730 3538 3438 3328 3275 3143 3034 2886 2724 2580 2470 2380 2304 2629 3210 3311 3650 3570 3354 3189 3188 2982 2807 2542 2469 2275 1923 1880 1958 1693 1096 502 331 353 368
4675 4750 4474 4280 4465 4426 4422 4586 4510 4215 4551 4818 4919 4813 4737 4459 4434 4404 4467 4229 4137 4183 4442 4451 4404 4208 4089 4059 4169 4088 4063 4185 4598 3736 3564 3452 3361 3259 3136 2994 2835 2820 3131 3564 3887 2800 3578 3519 3897 3633 3318 3052 3263 3286 3243 3131 2960 2796 2616 2460 2346 2277 2420 2901 3289 3762 3779 3512 2984 3130 2994 2823 2757 2723 2498 2096 2084 2045 1687 1368 644 250 331 246 136
4576 4767 4507 4244 4205 4180 4273 4372 4447 4209 4389 4668 4761 4791 4673 4369 4431 4507 4510 4310 4350 4277 4394 4045 3956 3986 4080 4160 4088 3999 4106 4192 4431 4135 3570 3570 3549 3530 3472 3309 3075 2851 2820 4582 3058 3159 3157 2942 3393 3454 3372 3252 3202 3160 3180 3088 2861 2589 2436 2343 2446 2549 2858 3393 3684 3587 3149 3026 2796 2759 2918 2874 2692 2350 2122 2105 1834 1696 1502 1085 324 267 84 46 30
4759 4710 4556 4203 4327 4222 4292 4237 4390 4212 4408 4455 4586 4688 4733 4539 4346 4557 4384 4173 4223 4241 4000 3902 3886 3720 4234 4276 4338 4274 4234 4532 4537 4266 3912 3764 3675 3740 3712 3665 3441 3081 3014 3006 2945 2948 3026 2986 2921 2978 3254 3240 3140 3128 3122 3088 2903 2549 2442 2498 2662 2834 3351 3454 2871 2844 2902 2908 2947 3023 2846 2631 2330 2192 2118 1951 1796 1682 1144 458 145 69 7 1 65
4757 4827 4616 4260 4305 4234 4392 4362 4402 4336 4323 4359 4400 4406 4266 4415 4300 4477 4383 4019 4164 4207 3922 3811 4109 4081 4168 4148 4414 4472 4404 4564 4418 4951 4178 3983 3924 3872 3949 3904 3680 3300 3224 3206 3169 3114 3035 2923 2851 2833 2870 2912 2923 2913 2957 2929 2670 2465 2444 2588 2737 3020 2914 2827 3020 3274 3356 3129 2816 2758 2552 2334 2224 2219 2042 1796 1730 1260 403 103 14 76 0 18 101
5078 5042 4715 4638 4530 4452 4526 4235 4464 4471 4508 4327 4426 7254 6225 4458 4501 4464 4542 4412 4445 4230 4231 4221 4152 3963 4298 4318 4332 4419 4623 4551 4608 4086 4826 4081 4041 3943 4026 4024 3943 3596 3518 3454 3410 3328 3257 3146 3013 2774 2755 2793 2744 2700 2707 2830 2622 2454 2481 2543 2634 2722 2937 3175 3324 3196 2976 2674 2650 2482 2228 2244 2188 2136 1698 1568 1313 1064 158 11 34 49 75 70 2
5019 5080 5017 4804 4882 4505 4469 4383 4408 4658 4612 4295 3755 4299 4322 4156 4052 5368 4374 4240 4540 4265 4734 4542 4261 4890 4482 3953 4402 4376 4579 5799 4340 4230 4052 4084 4081 4136 4201 4183 4051 3744 3701 3719 3662 3597 3518 3415 3223 3082 2920 2795 2712 2629 2586 2589 2562 2522 2532 2611 2697 2989 3099 3039 2986 3006 2698 2510 2214 2141 2049 2010 1912 1704 1366 943 929 577 80 2 62 36 80 1 0
4695 4898 4816 4883 4981 4786 4770 4716 4492 4887 4962 4782 4395 4052 4271 4161 3958 4118 4176 4255 4148 4114 4069 4271 4153 3990 5972 4486 3954 3916 4004 4016 4008 4259 4168 4128 4146 4109 4070 4126 4060 3877 3806 3771 3750 3711 3660 3570 3485 3413 3339 3268 3217 3185 3136 3054 2984 2908 2893 2843 2744 2989 3028 3046 3071 2798 2457 2216 2022 1792 1728 1839 1669 1122 1099 1037 502 0 21 29 9 31 0 0 0
4556 4658 4727 4802 5162 5134 4678 4708 4771 4824 4801 5234 5791 4715 4414 4151 3966 3976 4102 4310 4403 4256 4143 3965 3996 4051 4506 4498 4105 3806 3878 3929 3928 3897 4208 4197 4142 4151 4139 4139 4044 3873 3840 3814 3794 3789 3739 3694 3600 3518 3472 3435 3459 3431 3339 3285 3206 3148 3126 3085 3026 3074 3157 2944 2889 2589 2262 2010 1766 1696 1561 1072 1067 1179 998 370 117 0 0 0 0 0 0 0 0
4614 4574 4703 4790 4879 5118 4858 5058 5094 4854 4939 5056 5331 5330 5022 4858 4305 4199 4096 4136 4296 4452 4354 4283 4189 4123 4176 4200 4219 4214 4096 4017 4042 4093 4048 4093 4156 4184 4198 4163 3998 3842 3749 3772 3778 3814 3839 3832 3750 3661 3619 3589 3572 3525 3423 3342 3344 3248 3226 3185 3113 3102 2830 2663 2508 2420 1965 1951 1580 1078 1050 1148 1061 810 696 59 0 0 0 0 0 0 0 0 0
4597 4651 4810 4734 4913 4941 4751 4946 5075 5287 5402 5333 5439 5356 5290 4926 5112 4408 4212 4263 4250 4259 4397 4436 4284 4179 4032 4061 4173 4182 4198 4185 4093 4033 4082 4114 4117 4155 4143 4055 3955 3884 3844 3853 3839 3865 3820 3812 3791 3740 3681 3619 3566 3587 3642 3593 3518 3359 3195 3022 2805 2555 2144 2280 2200 2038 1706 1178 998 1022 1002 1103 823 890 435 0 0 0 0 0 0 0 0 0 0
5438 5752 5648 4977 5055 5082 4930 5143 4930 4953 5029 5456 5572 5331 4992 5294 4912 5074 4424 4138 4136 4169 4160 4273 4346 4394 4219 4057 3984 4084 4173 4178 4072 3942 3954 4017 4048 4027 3986 3995 3991 3932 3867 3880 3860 3868 3888 3888 3820 3756 3668 3665 3692 3688 3641 3560 3372 2985 2479 2748 2515 2322 2278 2253 2059 1856 1493 1321 1200 1147 1058 790 818 608 317 358 398 138 0 0 0 0 0 0 0
4391 4328 4476 4311 4698 4916 4879 4966 4944 4800 5062 5401 5325 4907 4662 4530 4388 4308 4727 4518 4086 4030 3987 3985 4074 4174 4214 4184 4081 4004 3919 3850 3824 3840 3860 3928 4020 4023 4041 4059 4026 3995 4007 3944 3880 3859 3825 3786 3740 3745 3726 3621 3620 3441 3292 3270 2947 2745 2498 2307 2148 2270 2231 1818 1588 1567 1444 1394 1482 1347 1105 1168 1102 842 657 558 793 442 0 0 0 0 0 0 0
3718 3598 3691 3633 3375 3359 3914 4565 4959 5029 4590 4541 4404 4036 3774 3938 3637 4258 3916 3818 3701 3574 3579 3575 3625 3819 3845 3869 3843 3773 3750 3836 3920 3944 3953 3988 4074 4127 4081 4108 4172 4172 4077 4079 4063 4046 4001 3965 3960 3938 3923 3772 3262 3071 2993 2900 2734 2451 2256 2006 2204 2197 1844 1581 1490 1368 1262 1045 1067 1268 1344 1262 798 523 620 762 264 0 0 0 0 0 0 0 0
3449 3512 3508 3558 4202 4603 4395 4686 4572 4452 4691 4428 4747 4421 4048 4274 4164 3835 3758 3586 3513 3304 2928 2813 3103 3335 3516 3538 3575 3570 3638 3850 4028 4037 3979 3997 4132 4312 4307 4185 4152 4258 4315 4270 4223 4185 4157 4096 4075 3855 3465 3200 2950 2817 2621 2526 2157 2222 2152 1910 1852 1562 1588 1721 1851 1632 1334 1408 1198 876 605 422 269 0 0 5 0 0 0 0 0 0 0 0 0
3040 3174 3208 3216 3166 3282 3396 3928 4150 4251 4114 4449 4197 4254 3962 3989 3820 3415 3156 3018 2821 2864 3038 3351 3532 3623 3583 3493 3348 3379 3460 3688 3804 4005 4076 4119 4222 4148 3564 3605 3493 3568 3792 4089 4276 4283 4150 4029 3793 3399 2897 2750 2642 2530 2286 1986 1986 1942 1960 1904 1778 2468 1825 1441 1253 886 943 905 704 548 294 0 0 0 0 0 0 0 0 2 1 0 4 3 3
2669 2642 2845 2698 2733 2619 2894 3103 3206 3160 3347 3406 3626 3620 3632 3583 3532 3499 3256 2995 2989 3265 3433 3508 3517 3263 3070 3108 3256 3197 3283 3393 3526 3731 3955 4134 4190 3865 3456 3312 3430 3581 3652 3576 3290 3299 3320 3468 3330 3143 2879 2670 2484 2309 2131 2160 1994 1700 1321 1049 1226 1144 977 946 1079 946 891 768 468 0 4 3 1 0 0 0 0 2 4 2 3 5 5 4 8
2628 2485 2435 2477 2438 2376 2478 2779 3023 3039 3060 3214 3353 3433 3404 3401 3326 3213 3248 3245 3287 3408 3376 3266 3078 2849 2693 2511 2668 2734 2879 3262 3416 3430 3515 3652 3669 3578 3330 3072 2967 3022 3002 2966 2964 2934 2859 2911 2828 2688 2391 2058 2060 2011 1733 1384 1403 1254 1278 1223 1441 1458 1396 1124 983 754 131 0 0 2 4 4 2 0 1 4 1 1 0 4 12 7 8 16 6
1921 1922 2045 2266 2339 2317 2312 2331 2538 2682 2766 2835 2895 3085 3309 3375 3454 3524 3662 3639 3601 3554 3470 3288 3038 2806 2355 2230 2316 2346 2447 2633 2917 3066 3119 3142 3048 2764 2497 2421 2478 2540 2669 2794 2820 2664 2472 2380 2374 2335 2240 2089 1942 1890 1672 1508 1692 1632 1313 1330 1184 1168 1128 1005 621 446 2 1 1 3 5 4 6 7 6 0 0 0 7 10 10 12 6 4 3
764 1201 1439 1570 1721 1946 2030 2122 2178 2225 2292 2380 2536 2834 3129 3304 3525 3619 3718 3799 3788 3728 3573 3518 3446 3318 2922 2953 2949 2601 2427 2566 2706 2748 2867 2854 2615 2457 2365 2315 2290 2262 2268 2378 2496 2579 2640 2501 2288 2159 2126 1985 1595 1560 1571 1412 1371 1175 1356 1272 1058 1064 888 606 417 161 2 3 3 6 10 4 2 1 8 15 15 14 2 3 4 5 10 4 10
691 500 238 451 1018 1399 1546 1584 1722 1788 1994 2343 2549 2600 2716 2873 3120 3334 3491 3624 3571 3406 3223 3059 3044 3095 3126 3105 2865 2534 2379 2569 2848 3034 2987 2532 2348 2292 2199 2094 2072 2011 2114 2051 1841 1771 1812 1860 1828 1847 1929 1786 1594 1515 1244 1207 1242 1216 1142 998 818 723 688 629 344 0 0 0 0 0 0 0 2 0 3 13 13 12 13 13 1 1 0 2 0
0 0 0 0 0 0 0 1 422 483 498 678 1053 1661 2222 2531 2754 2967 3052 2965 2844 2881 2785 2714 2559 2469 2436 2548 2660 2686 2503 2606 2706 2813 2679 2105 2008 2033 2061 2062 2109 2088 2132 2094 1891 1728 1661 1633 1564 1547 1472 1438 1334 1400 1293 1087 1010 933 901 869 686 331 34 0 0 0 0 0 0 0 0 0 0 0 0 0 0 0 0 1 2 3 6 4 1
0 0 0 0 0 0 8 74 112 302 477 380 419 813 1118 1532 2230 2682 2850 2860 2859 2756 2668 2604 2383 2223 2292 2472 2599 2714 2654 2632 2628 2537 2331 2149 2103 2178 2248 2139 2007 1972 1865 1738 1729 1661 1558 1527 1510 1324 1245 1220 1081 1002 859 638 470 285 0 0 0 0 0 0 0 0 0 0 0 1 1 4 5 4 4 5 3 3 3 5 6 5 3 3 2
0 0 0 0 0 0 2 3 33 312 375 446 351 419 560 1056 1509 2018 2465 2735 2740 2873 2833 2989 2927 2886 2698 2424 2267 2308 2295 2313 2306 2298 2050 1221 1521 1832 1966 1890 1746 1602 1635 1529 1554 1454 1421 1483 1405 1212 1005 804 652 440 115 0 0 0 0 0 0 0 0 0 0 0 2 1 1 1 2 4 7 7 5 5 5 3 3 4 4 3 3 2 2
0 0 0 0 1 0 1 6 28 66 170 335 373 344 381 502 671 1236 1747 2042 2160 2450 2480 2409 2350 2393 2577 2713 2521 2140 1852 1860 1945 2093 1336 1149 1397 1502 1511 1370 1334 1341 1268 1267 1264 1225 1160 1082 995 653 239 0 0 206 136 0 0 0 1 0 0 0 2 3 3 3 2 1 1 1 1 2 2 2 2 4 3 2 2 2 3 3 2 2 3
0 1 1 2 1 1 1 1 1 0 64 135 266 352 404 364 450 576 787 1004 1377 1747 1936 1877 1773 1684 1868 2196 2033 1831 1699 1568 1600 1732 1885 1774 1562 1410 1240 1207 1215 1150 1115 1047 976 936 786 741 701 608 548 436 0 0 0 0 0 0 0 0 0 0 0 0 0 0 0 1 0 0 0 0 0 0 3 3 2 1 3 3 2 1 1 3 3
2 2 2 3 4 4 4 3 2 2 2 2 1 78 107 310 356 394 583 757 871 956 1026 1056 1174 1162 1283 1355 1407 1464 1542 1602 1604 1660 1725 1723 1567 1292 1223 1148 1101 1083 919 824 818 810 723 645 522 416 191 0 0 0 0 0 0 0 0 0 0 0 0 0 0 0 0 0 0 0 0 0 0 0 2 2 2 2 1 0 0 0 1 3 3
7 3 2 2 2 2 2 2 2 3 3 4 4 4 5 348 339 331 358 443 500 637 807 832 969 968 1044 1112 1122 1163 1172 1159 1184 971 1048 1316 1202 980 951 865 837 808 745 677 644 510 418 389 324 204 0 109 0 0 0 0 0 0 0 0 0 0 0 0 0 0 0 0 0 0 0 0 0 0 0 0 0 0 1 1 2 2 1 0 0
Wind_Speed
22 23 24 22 20 16 14 15 14 15 13 12 12 12 13 12 11 10 11 12 12 10 10 9 7 6 3 3 2 4 5 6 7 7 8 7 6 6 6 10 10 9 9 9 10 11 11 11 10 7 4 2 0 1 1 1 2 2 3 4 6 6 6 6 8 8 7 7 8 9 9 10 11 11 12 14 15 15 19 21 20 18 19 19 18
22 24 25 24 22 19 17 17 17 18 15 14 13 14 14 13 12 11 11 12 13 12 10 10 9 8 6 5 5 5 7 7 8 8 8 8 7 6 6 8 10 9 9 10 10 9 9 10 10 9 7 5 3 2 2 3 2 3 4 5 6 5 5 6 7 7 8 6 9 9 10 11 12 13 15 17 17 16 17 16 14 12 14 16 17
23 25 25 26 24 23 21 20 20 18 16 16 14 14 15 13 13 12 12 14 14 14 13 11 12 10 8 8 8 7 8 8 7 8 8 8 7 6 7 9 10 10 10 10 9 9 9 9 10 9 7 6 5 3 4 4 5 5 5 5 5 4 5 6 6 8 9 8 8 9 10 10 10 11 14 15 16 17 19 20 17 14 15 17 17
25 25 25 25 26 26 24 22 20 19 18 17 15 15 16 16 15 13 13 15 16 16 15 13 14 13 10 10 9 8 10 9 8 8 9 9 7 6 6 9 10 10 9 9 9 8 8 8 8 8 8 6 5 3 2 3 3 4 6 6 5 5 5 5 6 7 8 10 8 8 8 7 8 12 14 15 17 19 17 16 16 16 17 17 18
25 26 25 26 26 26 25 23 21 20 19 18 17 16 17 17 17 15 15 15 16 18 17 16 16 15 12 11 11 10 10 10 9 8 9 9 8 8 7 8 10 10 10 9 8 7 7 7 7 7 6 5 5 4 3 3 2 3 3 3 2 2 3 4 6 7 9 10 9 7 6 8 10 13 15 15 17 19 16 15 16 17 18 18 18
24 26 27 27 27 26 25 24 22 20 19 19 19 19 18 18 19 19 17 16 16 18 18 17 17 16 15 13 12 11 11 11 10 9 9 10 9 8 8 8 9 11 11 10 9 8 7 7 6 6 6 6 5 4 3 2 1 2 3 3 2 1 3 5 6 7 9 9 8 8 9 11 13 16 17 15 14 13 13 13 15 18 19 20 18
23 25 27 27 27 26 26 24 23 22 22 21 22 21 20 19 20 20 20 18 17 18 19 18 18 18 16 15 13 13 12 11 12 11 9 9 10 9 8 10 10 11 11 11 11 10 9 7 6 6 6 5 4 4 3 2 1 3 3 4 2 1 2 4 5 7 7 7 7 8 9 12 15 16 18 15 11 11 12 12 15 16 18 18 17
23 25 26 27 27 27 26 26 24 25 24 25 24 23 22 21 22 23 23 20 19 18 19 19 19 19 18 16 15 15 14 13 13 12 11 10 11 11 9 10 11 11 12 12 11 10 10 9 7 6 6 6 5 3 2 2 2 2 4 5 4 2 1 3 3 3 4 3 4 5 7 9 12 15 16 16 12 10 12 11 11 12 15 18 20
23 24 25 26 27 28 28 28 27 27 26 26 24 24 23 23 24 25 25 23 22 20 19 20 20 19 19 17 16 16 15 14 14 14 13 12 11 12 12 11 11 12 12 11 11 9 8 7 7 6 5 8 8 5 2 4 4 4 5 6 5 3 2 1 1 1 1 2 2 5 7 10 12 13 17 19 14 8 7 11 11 12 13 14 18
21 23 24 24 26 28 29 29 28 28 27 27 26 26 25 25 24 24 26 24 24 24 22 21 20 21 20 19 17 17 16 16 16 17 16 14 13 12 13 13 12 12 12 11 10 10 9 6 5 6 5 8 12 11 7 4 6 5 7 7 5 4 3 1 1 1 2 3 4 5 6 9 10 11 15 16 12 7 7 10 10 10 12 14 16
20 20 22 24 26 27 28 29 28 28 28 28 28 27 26 27 26 26 26 26 26 26 25 22 20 22 21 20 19 17 17 17 22 21 18 15 14 14 14 15 14 13 13 12 10 9 8 8 5 3 4 7 10 12 11 9 7 4 3 6 9 9 6 2 1 3 3 4 6 7 8 8 9 9 11 12 9 7 8 11 11 11 12 11 11
20 19 21 23 25 26 27 28 28 29 29 28 29 28 28 27 27 26 26 26 27 26 26 24 24 23 23 21 20 18 18 21 27 24 21 17 14 14 15 15 15 15 13 13 12 10 8 8 7 6 5 5 5 10 10 9 8 6 5 2 2 4 3 3 5 4 4 4 6 8 7 8 8 8 9 9 10 7 7 11 13 12 13 13 14
21 20 20 22 23 25 27 28 28 28 28 29 29 29 28 27 27 26 25 27 27 26 27 26 26 25 24 23 21 20 17 26 27 26 23 19 16 12 14 15 15 15 15 13 13 12 10 9 7 6 5 9 9 6 8 9 8 8 7 4 1 1 2 3 2 4 4 4 5 7 9 8 8 8 10 11 8 3 7 12 13 14 16 17 18
23 21 21 22 23 25 27 27 27 27 28 29 29 28 27 26 27 28 28 29 28 26 26 26 27 27 25 25 24 22 19 29 28 27 24 21 18 14 12 14 14 14 15 14 14 13 12 11 10 8 7 7 8 7 7 6 8 8 8 8 7 3 2 3 5 6 8 7 7 7 8 10 9 9 12 11 4 1 5 9 11 12 15 18 18
25 23 23 23 23 25 25 26 26 27 28 29 29 28 27 27 27 28 28 28 28 27 26 26 27 27 26 24 24 23 21 33 29 28 25 22 19 16 12 12 12 13 14 14 14 13 13 12 11 10 9 8 7 7 7 7 5 6 9 9 8 7 7 7 9 11 13 13 11 10 9 10 10 11 13 13 8 5 7 7 8 11 14 18 22
27 25 25 25 25 26 27 25 26 26 27 27 28 27 26 26 26 27 27 27 27 27 27 25 26 26 26 24 23 23 24 33 29 29 27 23 23 18 14 12 11 12 14 14 14 14 14 13 13 11 10 9 8 8 8 9 6 5 6 7 9 9 8 9 13 17 17 17 15 13 13 11 14 13 13 11 7 7 8 10 11 13 15 19 23
28 27 27 27 26 27 28 25 25 26 27 26 26 27 26 25 25 26 26 26 25 25 24 24 25 25 25 24 21 23 21 29 29 29 29 27 26 19 16 15 13 13 14 15 15 15 15 14 13 13 12 10 9 10 11 12 8 5 7 8 10 10 10 11 15 21 23 22 21 19 17 17 14 12 11 12 14 14 13 12 16 17 17 17 19
29 29 29 28 28 29 29 26 25 27 26 25 25 26 25 25 24 25 25 24 22 22 22 23 23 22 23 22 21 21 20 28 29 29 30 30 26 20 18 17 15 15 15 15 16 16 15 16 15 13 12 11 11 11 13 15 10 7 7 7 8 9 10 11 15 19 22 24 22 20 18 15 14 14 15 16 19 24 20 21 20 19 19 21 20
30 30 30 29 28 30 29 26 25 26 26 24 24 25 25 24 24 24 23 23 21 21 21 21 20 20 20 20 22 20 19 27 30 30 30 30 25 20 19 17 16 17 17 17 17 17 16 17 17 14 13 12 11 12 14 14 9 9 8 8 8 9 12 15 16 15 20 22 20 22 20 19 19 21 22 24 23 27 27 26 23 23 23 23 23
30 32 32 29 28 30 29 25 24 25 25 24 23 24 24 24 24 24 23 23 22 19 19 19 17 18 19 18 21 19 18 23 28 30 30 29 26 21 19 17 17 18 18 19 19 18 18 17 18 18 15 12 10 12 13 13 9 8 10 9 11 12 15 15 18 20 17 18 19 21 19 19 19 23 25 25 26 30 30 30 29 28 26 26 26
33 34 32 29 29 30 28 25 24 24 24 23 23 23 24 24 24 24 22 22 21 20 17 17 16 17 17 18 18 17 18 19 26 28 28 28 25 22 18 17 18 19 20 20 19 19 20 19 15 21 21 17 13 12 13 11 9 8 8 11 15 27 28 21 23 22 19 18 18 18 16 16 20 24 26 27 26 29 32 30 30 28 28 nan nan
35 35 31 27 29 30 28 26 25 24 23 23 23 23 24 23 23 23 22 22 20 19 19 18 17 17 17 17 16 15 18 17 25 23 27 26 25 21 18 17 19 20 20 20 20 18 18 20 17 21 25 21 17 13 11 11 10 10 8 11 19 30 24 23 20 19 18 18 19 20 20 20 22 25 26 26 26 28 29 29 28 27 nan nan 30
35 34 30 27 29 29 27 27 26 23 21 22 22 23 25 24 23 22 21 21 19 18 18 17 16 16 16 17 15 15 18 18 26 23 22 24 24 22 18 17 21 19 19 18 18 17 17 16 17 24 26 24 20 16 13 10 11 10 8 14 19 24 24 19 19 19 19 21 23 22 22 23 25 27 28 30 30 32 28 28 28 29 30 31 32
36 34 30 28 29 29 27 27 25 22 22 21 22 24 24 23 23 22 21 19 18 17 17 16 15 14 14 15 15 15 15 15 22 25 22 22 23 23 20 15 18 18 17 15 16 16 14 14 17 28 26 25 22 19 16 15 13 10 12 13 16 21 21 21 21 22 23 24 25 24 25 27 28 29 31 32 30 29 29 30 31 31 31 32 33
38 34 30 29 30 29 27 26 25 22 22 22 22 23 23 23 22 21 20 19 17 17 16 16 15 14 14 12 12 11 10 11 14 22 25 22 22 21 20 18 13 12 13 12 9 16 23 27 27 28 28 27 25 23 21 19 15 13 16 22 22 21 22 24 25 26 27 28 26 28 28 30 32 32 34 33 30 29 31 32 31 31 33 35 35
39 35 31 30 30 29 29 28 26 22 22 21 21 22 22 22 21 20 19 18 17 16 15 14 14 13 11 11 11 11 11 13 13 21 20 21 20 20 20 19 15 13 11 19 24 22 22 27 28 29 28 27 28 26 24 25 23 22 21 24 24 24 25 26 29 30 30 29 30 31 31 32 34 35 33 32 32 33 34 34 33 34 nan nan nan
40 36 32 31 30 29 29 28 26 23 22 21 21 21 21 21 20 19 18 17 16 15 14 13 13 13 13 13 14 14 14 15 14 17 22 21 20 18 17 15 15 15 12 16 19 20 20 18 20 21 23 24 23 27 27 30 27 26 24 26 26 27 28 29 31 32 34 32 33 32 33 36 35 33 32 33 34 37 37 37 36 nan nan nan nan
40 36 33 31 30 29 29 30 27 24 23 21 20 20 19 19 18 17 17 17 16 16 14 15 15 15 15 15 16 16 16 15 16 18 23 23 21 23 21 20 21 19 17 17 18 19 24 26 25 24 23 23 23 22 22 22 23 23 22 24 26 28 36 41 38 37 36 34 35 36 37 37 34 36 35 35 38 39 40 39 nan nan nan nan 38
39 36 33 31 30 30 30 29 25 25 25 22 24 26 20 17 18 19 18 20 19 16 16 18 18 17 18 18 17 16 17 15 16 18 24 26 25 26 25 24 24 25 23 23 23 21 26 26 25 25 24 24 22 21 22 23 23 22 23 25 26 30 33 34 34 35 35 34 36 38 36 35 35 37 37 39 43 41 43 nan nan nan nan nan nan
36 34 33 31 31 30 30 29 27 26 27 25 32 30 36 41 39 30 30 37 41 41 37 26 26 23 20 25 29 20 18 23 33 33 37 35 30 33 32 31 28 27 30 31 28 26 27 27 25 26 26 26 26 26 27 28 28 29 29 30 32 34 36 37 35 37 36 35 36 38 38 37 35 37 39 41 44 42 nan nan nan nan nan nan nan
35 35 34 32 32 32 32 32 31 27 27 29 33 32 32 39 46 46 42 40 42 43 43 40 41 41 34 32 34 43 42 41 42 42 42 40 38 38 37 34 32 33 38 36 31 29 29 29 29 30 31 30 31 31 32 33 33 35 36 38 38 38 39 40 40 40 40 39 39 38 40 38 37 40 42 43 43 nan nan nan nan nan nan nan nan
35 36 35 35 36 35 34 34 34 31 29 29 32 32 32 33 37 45 46 45 46 46 45 45 44 44 44 40 37 37 40 43 45 45 44 43 42 39 38 37 36 40 41 39 34 32 32 32 33 33 35 35 36 37 37 38 39 40 43 45 45 44 43 42 43 43 43 44 42 38 38 38 40 42 44 45 45 nan nan nan nan nan nan nan nan
37 38 38 37 37 36 36 36 36 34 31 30 32 32 31 32 33 36 43 47 48 49 49 48 46 45 44 43 41 40 39 41 46 46 46 46 45 44 43 42 41 40 44 38 33 34 34 35 35 37 39 39 41 41 42 43 45 47 48 48 48 48 47 47 49 46 48 47 41 40 40 40 40 42 46 nan nan nan nan nan nan nan nan nan nan
40 40 39 39 38 37 36 37 37 37 36 34 34 33 33 32 33 37 39 38 41 46 51 53 50 47 47 45 46 47 46 45 47 47 47 47 49 49 51 44 42 41 43 37 35 35 37 38 38 40 44 44 45 49 51 50 50 50 49 47 48 48 47 46 48 50 48 46 43 42 43 42 42 41 43 nan nan nan nan nan nan nan nan nan nan
46 52 50 42 42 41 38 39 39 38 38 38 37 36 37 38 36 38 36 37 39 39 40 46 51 53 46 45 45 47 47 47 48 49 50 51 53 56 59 54 49 42 38 37 37 36 38 43 43 45 46 47 48 49 47 45 46 44 43 43 44 48 51 46 46 45 43 43 43 42 44 43 41 42 43 44 44 43 nan nan nan nan nan nan nan
51 52 55 54 50 47 44 43 42 40 40 40 39 38 39 39 36 34 35 34 37 43 47 49 49 51 54 54 50 49 52 52 53 53 54 54 53 56 52 50 48 44 42 43 43 44 45 46 48 48 48 46 46 44 42 42 40 39 39 42 47 46 42 42 40 40 39 38 40 40 43 43 41 41 43 43 43 43 nan nan nan nan nan nan nan
53 52 48 44 41 41 44 44 43 44 45 43 42 41 40 40 39 39 40 40 41 42 44 45 45 46 49 49 50 51 51 53 54 55 53 51 46 42 42 43 41 42 41 42 44 46 46 46 46 46 44 43 43 41 39 38 37 38 39 41 42 41 39 35 33 34 35 36 38 41 42 40 40 41 40 41 43 nan nan nan nan nan nan nan nan
57 54 49 48 49 51 49 48 51 52 49 46 45 43 43 42 41 43 42 43 44 44 42 40 39 41 42 43 41 43 48 51 55 54 50 47 44 41 40 42 45 44 42 43 45 45 46 45 43 41 40 40 40 39 39 38 39 41 41 41 40 38 38 37 36 37 36 35 38 40 39 37 38 nan nan nan nan nan nan nan nan nan nan nan nan
57 61 61 57 56 51 49 47 46 46 47 47 48 48 50 49 45 42 42 43 43 42 39 39 39 41 41 41 43 45 47 46 47 47 46 44 42 40 42 44 45 44 42 42 42 43 42 41 39 38 37 37 38 37 37 39 42 42 43 43 40 37 34 33 35 35 36 36 37 38 39 nan nan nan nan nan nan nan nan nan nan nan nan nan nan
58 56 55 56 51 54 52 52 52 53 54 52 51 49 47 45 44 44 43 42 41 40 39 39 39 39 39 39 39 38 40 40 41 41 42 42 41 41 41 41 43 42 41 41 40 40 42 42 41 40 41 42 41 39 41 42 43 43 42 40 39 38 36 34 36 39 38 38 37 nan nan nan nan nan nan nan nan nan nan nan nan nan nan nan nan
58 56 54 55 55 52 51 51 52 53 52 50 47 47 48 47 46 44 42 41 40 39 40 40 39 38 37 37 33 30 35 37 37 38 38 39 40 41 41 41 41 41 41 41 42 44 45 45 44 44 43 43 42 41 41 41 42 43 41 41 42 41 41 39 40 42 41 nan nan nan nan nan nan nan nan nan nan nan nan nan nan nan nan nan nan
58 57 56 56 56 54 52 51 51 53 52 51 49 48 47 47 46 44 44 44 42 41 42 42 42 40 43 48 45 44 40 39 41 42 42 42 43 43 43 44 44 44 44 45 45 47 48 48 47 46 46 45 45 44 42 41 40 39 40 40 41 44 44 43 43 43 nan nan nan nan nan nan nan nan nan nan nan nan nan nan nan nan nan nan nan
58 60 61 59 59 58 56 53 53 53 54 54 53 52 51 50 49 48 46 45 44 44 44 44 44 44 44 48 50 50 46 44 43 43 43 44 44 45 45 45 45 45 46 46 46 46 47 48 48 49 49 49 48 46 44 43 43 42 45 47 48 47 47 47 47 46 nan nan nan nan nan nan nan nan nan nan nan nan nan nan nan nan nan nan nan
58 62 64 64 64 63 60 56 55 56 58 59 58 55 53 52 51 51 50 48 47 47 46 46 45 45 46 47 48 48 47 46 46 46 47 46 46 46 46 47 47 47 47 47 47 47 47 47 48 49 49 49 49 48 46 46 46 48 48 50 51 51 51 51 51 nan nan nan nan nan nan nan nan nan nan nan nan nan nan nan nan nan nan nan nan
nan nan nan nan nan nan nan nan 59 59 61 60 58 57 57 56 54 54 53 52 51 50 49 48 47 46 47 48 48 50 51 51 51 51 51 51 52 52 51 51 50 50 50 49 49 49 49 50 50 51 51 51 51 51 51 51 51 51 51 51 52 53 nan nan nan nan nan nan nan nan nan nan nan nan nan nan nan nan nan nan nan nan nan nan nan
nan nan nan nan nan nan nan nan 65 64 64 63 61 60 59 58 58 57 56 55 54 53 52 51 50 49 49 50 50 51 51 51 52 54 54 53 52 53 53 52 52 52 52 51 51 52 52 53 53 54 54 54 54 54 53 53 54 54 nan nan nan nan nan nan nan nan nan nan nan nan nan nan nan nan nan nan nan nan nan nan nan nan nan nan nan
nan nan nan nan nan nan nan nan nan 69 69 68 66 65 63 61 61 62 61 60 60 59 57 54 54 53 53 53 53 53 53 52 54 56 54 48 45 46 48 50 52 53 54 54 55 56 57 57 57 56 56 56 56 57 56 nan nan nan nan nan nan nan nan nan nan nan nan nan nan nan nan nan nan nan nan nan nan nan nan nan nan nan nan nan nan
nan nan nan nan nan nan nan nan nan nan 73 72 70 69 68 66 65 65 63 61 61 61 61 60 59 58 58 57 56 57 56 55 57 59 56 51 49 48 48 48 51 53 55 56 57 58 59 59 59 59 59 nan nan 60 59 nan nan nan nan nan nan nan nan nan nan nan nan nan nan nan nan nan nan nan nan nan nan nan nan nan nan nan nan nan nan
nan nan nan nan nan nan nan nan nan nan nan 74 73 73 71 70 70 69 68 67 66 65 64 63 62 62 62 62 62 61 60 60 59 58 57 56 57 56 54 53 53 53 53 55 56 58 59 60 62 63 64 64 nan nan nan nan nan nan nan nan nan nan nan nan nan nan nan nan nan nan nan nan nan nan nan nan nan nan nan nan nan nan nan nan nan
nan nan nan nan nan nan nan nan nan nan nan nan nan nan 76 75 74 75 75 74 72 70 67 66 66 65 65 66 65 63 64 64 62 59 55 54 53 53 53 53 52 51 52 54 56 57 59 61 63 64 65 nan nan nan nan nan nan nan nan nan nan nan nan nan nan nan nan nan nan nan nan nan nan nan nan nan nan nan nan nan nan nan nan nan nan
nan nan nan nan nan nan nan nan nan nan nan nan nan nan nan 79 79 78 78 77 76 73 71 70 68 68 67 66 67 69 69 69 66 63 61 59 58 57 57 57 56 55 55 56 57 58 60 61 62 63 nan 65 nan nan nan nan nan nan nan nan nan nan nan nan nan nan nan nan nan nan nan nan nan nan nan nan nan nan nan nan nan nan nan nan nan
Wind_Direction
258 249 247 246 247 249 244 237 238 231 230 229 223 225 222 219 219 202 202 193 201 202 198 199 210 222 233 252 314 316 325 329 328 326 330 340 352 357 359 345 357 0 7 23 26 24 30 38 43 42 41 38 272 136 113 352 355 67 84 78 75 68 60 67 84 91 87 79 80 78 80 80 72 59 56 49 36 20 11 10 20 33 32 23 22
260 254 251 250 255 253 249 243 241 235 235 232 225 227 227 223 221 210 204 203 205 211 212 210 216 229 237 265 275 298 303 309 324 316 318 325 341 333 345 343 343 352 352 1 13 20 16 25 37 42 33 36 66 86 104 105 61 69 79 80 90 87 66 75 77 89 89 79 69 66 67 58 56 43 40 40 35 25 29 29 34 33 21 16 18
263 256 254 253 257 254 250 246 245 248 245 235 233 231 232 230 225 220 210 213 212 213 222 219 226 233 234 248 265 280 288 302 305 304 303 314 331 340 330 339 343 347 348 353 2 3 11 17 28 33 33 29 27 64 103 110 123 125 108 97 88 87 79 56 68 76 79 75 70 69 55 44 41 40 41 36 30 35 40 41 42 34 22 25 26
266 263 260 260 260 257 254 249 253 254 251 242 241 238 237 234 232 227 222 217 222 221 226 229 236 237 242 248 264 272 285 294 299 299 299 310 323 332 330 330 338 346 347 348 353 355 4 8 20 29 30 29 22 33 73 106 123 125 124 126 126 114 109 90 56 59 68 74 67 63 62 54 43 50 49 33 32 38 44 41 38 35 31 29 25
273 269 267 267 264 260 261 257 255 257 257 251 254 249 243 240 237 236 232 222 228 232 231 234 239 246 248 257 265 275 286 294 298 301 299 304 319 327 328 325 331 338 341 340 342 344 355 8 9 13 23 28 17 16 36 73 116 137 128 133 119 98 84 70 64 58 58 61 62 47 37 33 29 36 34 25 22 27 35 40 38 32 29 32 26
285 275 270 269 266 266 263 261 261 262 260 257 260 256 249 246 246 241 238 234 231 237 241 239 242 250 252 258 267 275 281 288 293 298 306 308 310 318 320 326 330 334 337 338 337 336 346 3 6 6 9 19 22 4 6 59 127 132 139 162 172 130 67 64 59 54 52 52 45 40 14 20 16 11 8 8 17 25 32 36 30 24 20 23 25
291 284 277 274 269 269 269 266 262 261 258 255 254 256 255 253 251 250 245 242 240 239 246 246 245 253 257 260 270 276 282 288 288 295 297 300 305 309 318 324 329 329 334 339 339 337 345 358 9 7 4 8 23 12 350 1 156 148 172 179 185 158 69 68 64 55 53 47 34 19 15 7 9 9 354 352 360 12 25 31 27 19 16 16 19
298 293 286 279 273 275 272 269 266 259 255 250 250 253 256 254 252 251 250 249 248 247 249 252 251 254 260 262 269 274 281 286 290 292 294 294 298 306 312 319 329 332 334 337 342 342 344 354 11 13 2 349 358 9 354 308 266 203 197 201 207 216 124 101 93 79 60 49 20 8 358 3 6 10 2 2 15 19 16 24 31 30 23 11 8
297 299 295 290 281 276 270 266 263 261 258 254 251 250 253 254 253 253 253 250 249 252 251 255 257 260 264 266 271 275 281 285 285 289 292 296 298 309 314 318 324 328 332 338 337 337 341 347 2 22 345 329 343 336 329 258 265 254 227 211 208 216 197 165 126 76 51 14 357 347 3 11 19 17 11 7 24 37 356 0 16 29 33 25 0
295 300 301 296 287 280 273 267 266 265 262 259 254 251 250 252 255 258 257 254 251 250 251 253 260 264 267 271 272 274 278 279 285 300 295 290 301 303 308 311 318 321 324 330 335 335 340 346 355 11 358 329 324 330 336 296 256 242 237 227 216 212 217 211 236 338 337 334 336 345 3 16 25 19 6 9 16 2 350 344 3 20 33 33 8
293 297 297 295 292 288 280 274 270 269 267 263 259 254 251 249 250 253 256 256 252 251 252 258 259 264 269 271 276 276 278 279 293 297 300 302 299 303 305 308 314 319 323 321 323 327 329 335 336 351 325 304 302 320 328 334 332 316 248 206 198 201 208 215 275 301 317 325 327 340 359 15 19 23 16 14 350 327 341 341 353 9 20 27 27
291 289 291 291 294 297 291 285 278 273 270 269 266 261 254 251 251 253 257 261 254 254 256 256 255 259 264 271 275 276 278 283 294 298 300 302 298 296 306 307 310 314 317 321 318 319 326 327 329 321 322 318 303 296 308 329 337 332 321 287 153 140 145 216 232 251 299 322 333 336 347 359 359 2 12 351 322 320 342 348 356 7 16 18 15
283 284 288 291 294 295 294 292 287 280 276 273 270 266 262 257 257 258 261 258 257 253 254 257 258 257 259 267 273 277 277 284 293 298 299 300 304 297 299 307 310 311 313 318 317 314 313 314 317 313 306 321 312 309 292 307 333 342 326 327 303 83 95 69 357 313 280 308 327 334 336 334 345 344 334 335 323 332 336 343 347 359 4 8 8
276 283 284 289 292 294 294 293 293 288 281 276 273 272 270 265 262 259 256 256 256 256 258 258 257 259 259 262 266 273 275 282 294 296 297 299 302 296 292 303 307 308 309 312 312 314 314 310 311 314 315 299 292 298 289 289 294 298 281 266 255 261 319 14 18 10 344 332 342 347 334 327 338 335 330 333 355 20 349 350 344 1 4 2 1
273 278 283 287 291 296 297 294 294 291 286 282 278 277 275 268 265 261 259 260 259 258 258 259 258 261 264 265 267 271 270 285 294 296 295 299 299 292 296 291 290 296 300 305 305 310 312 312 312 314 311 312 305 301 289 285 280 269 278 277 273 260 274 296 310 306 307 313 336 357 349 343 342 339 334 336 349 349 330 333 341 6 7 2 357
271 276 280 286 291 294 295 298 295 292 288 285 283 281 278 273 268 263 259 260 259 259 258 258 261 264 265 267 268 272 271 287 294 296 296 297 295 283 296 294 288 289 294 297 301 301 306 307 306 313 314 316 318 314 293 280 276 263 253 252 252 258 268 293 315 316 313 314 326 340 341 321 306 320 315 310 308 312 322 333 351 356 360 355 349
275 278 279 283 289 292 293 299 297 294 289 287 285 284 281 276 270 264 262 261 263 262 261 260 258 263 267 268 270 269 271 283 294 295 295 297 285 281 291 290 292 296 293 296 298 301 304 304 306 305 315 319 321 313 308 294 289 260 231 229 240 245 254 263 305 323 327 328 334 343 301 295 287 291 305 308 315 307 317 342 353 349 348 351 348
277 278 279 284 288 289 290 293 295 294 291 290 287 283 281 275 272 265 264 262 262 262 259 256 258 261 268 271 274 271 271 281 295 295 296 297 294 287 287 290 292 291 291 293 292 294 302 313 311 312 313 315 322 322 308 297 293 279 246 231 242 251 256 262 263 286 318 331 330 304 299 305 315 324 329 335 334 320 331 343 344 337 340 341 345
277 280 281 284 286 286 287 292 295 296 293 290 284 281 280 277 271 266 263 260 257 254 255 255 256 259 265 270 273 279 272 277 294 293 297 300 296 285 285 286 289 289 290 291 294 293 296 302 317 316 314 312 319 315 314 303 299 280 265 251 250 253 260 263 273 281 291 296 301 307 307 312 313 317 323 331 333 324 331 340 338 333 336 338 340
275 274 275 280 283 283 285 291 293 293 291 287 280 276 274 273 273 270 266 261 259 256 257 255 257 255 258 264 266 277 273 267 285 297 300 303 307 290 282 284 285 288 289 288 289 294 297 298 306 322 326 321 310 305 311 316 302 280 265 255 249 255 259 270 271 271 280 297 301 302 302 298 311 318 325 325 324 324 329 335 335 333 332 331 334
266 269 273 279 282 285 286 290 293 290 287 285 280 275 273 273 273 271 269 265 261 259 261 258 256 252 254 258 259 271 272 273 282 301 302 304 309 299 285 285 283 282 285 287 290 294 297 301 302 312 325 326 326 321 308 314 305 280 269 249 245 247 247 256 269 276 278 285 288 289 298 303 307 314 320 322 320 320 325 331 332 325 319 nan nan
264 268 273 277 279 283 286 286 286 283 284 284 281 276 272 273 272 273 268 265 266 265 261 255 254 253 253 256 257 262 273 287 273 299 302 305 308 310 288 287 283 283 284 287 293 296 299 301 300 304 318 321 326 331 333 313 307 270 260 244 239 243 249 256 263 272 284 288 293 295 298 302 303 305 305 305 307 301 303 308 311 316 nan nan 329
262 266 269 271 274 280 283 287 284 281 285 288 284 276 270 271 271 270 269 267 269 268 264 260 256 253 253 257 258 259 260 273 282 283 298 303 309 311 308 289 292 286 290 294 297 300 298 299 296 298 308 316 319 327 328 319 285 271 254 237 244 248 257 266 271 278 281 282 281 287 292 297 300 300 302 299 295 293 302 309 316 322 326 328 325
256 261 263 266 272 277 281 286 286 282 286 285 278 271 268 267 266 265 266 266 267 267 262 263 259 258 258 257 258 260 258 255 274 288 289 304 304 313 317 311 289 293 296 295 296 299 298 296 288 291 303 308 310 308 305 301 286 279 264 262 261 265 269 273 280 283 284 285 288 289 291 291 289 291 289 288 291 296 307 315 319 320 319 319 320
253 256 261 264 269 273 278 281 285 283 285 285 277 270 268 266 263 262 264 266 265 264 265 263 261 257 254 254 253 256 257 261 256 278 297 303 308 316 323 331 323 299 296 296 294 269 261 259 272 293 300 305 307 298 288 285 284 269 257 253 263 275 281 280 280 283 285 283 281 286 289 290 289 289 288 289 295 305 308 309 309 314 316 316 316
249 253 256 260 266 273 279 282 283 284 286 281 273 265 264 263 260 259 261 263 260 259 260 259 258 256 250 245 243 244 246 245 249 262 274 292 300 317 326 334 336 325 312 264 259 264 265 265 267 274 277 280 281 285 289 287 293 288 278 274 275 278 281 284 286 283 284 285 285 286 286 286 286 284 286 293 298 299 299 302 306 309 nan nan nan
246 248 251 256 263 269 276 276 278 281 283 277 271 265 261 259 259 257 257 257 256 254 252 252 250 248 245 237 236 235 235 237 240 250 262 263 270 285 298 301 322 320 312 291 292 278 279 278 281 278 278 289 283 282 282 281 284 286 287 287 285 283 285 285 284 286 284 285 287 288 286 281 279 282 286 290 295 294 294 297 302 nan nan nan nan
244 246 251 253 258 265 269 272 276 275 278 275 270 265 259 256 255 255 250 246 246 247 246 243 241 242 239 239 238 238 239 239 245 252 265 272 278 282 291 295 296 299 307 311 304 297 289 287 290 292 295 299 300 301 299 295 295 293 294 294 291 288 276 270 274 280 286 291 287 283 280 281 287 290 289 290 288 290 292 294 nan nan nan nan 309
241 246 248 249 254 258 263 267 267 268 270 272 258 240 238 246 248 244 241 231 232 240 247 243 243 241 241 245 248 246 246 252 256 266 273 284 288 290 293 296 297 297 307 310 300 299 292 294 297 300 302 304 309 311 308 303 303 301 298 295 294 291 286 288 289 290 289 288 286 283 285 287 288 291 293 292 291 294 294 nan nan nan nan nan nan
241 245 247 248 253 256 256 257 259 259 264 266 254 244 234 230 223 224 233 223 227 226 231 235 233 234 240 238 232 242 247 247 250 268 280 290 292 295 295 296 301 299 302 306 298 300 300 296 303 306 305 306 308 306 305 303 303 301 299 297 291 289 291 291 291 289 283 281 282 286 285 284 289 292 293 293 293 295 nan nan nan nan nan nan nan
238 245 247 248 250 251 248 249 252 252 256 257 255 251 242 230 226 228 232 234 234 235 236 236 232 231 237 247 240 237 249 257 260 265 270 274 278 283 289 294 299 296 293 292 294 302 303 304 305 300 301 305 306 306 304 302 301 300 298 294 291 289 288 289 288 285 286 285 282 283 287 289 290 292 294 294 293 nan nan nan nan nan nan nan nan
239 244 245 247 245 245 244 245 249 250 250 254 255 255 250 246 236 228 228 234 237 237 237 235 234 234 236 246 253 247 247 256 263 266 266 267 270 278 284 290 290 287 293 298 294 296 301 302 302 304 305 306 305 302 302 301 299 300 295 291 289 287 285 284 283 282 281 278 275 278 284 288 293 296 295 294 295 nan nan nan nan nan nan nan nan
238 241 243 244 243 242 241 243 246 250 251 254 254 253 255 254 250 243 233 233 239 243 241 239 238 237 240 242 247 259 262 264 266 267 268 270 271 274 279 280 282 287 290 290 293 294 297 299 300 301 301 301 300 300 299 297 295 292 288 285 283 281 278 276 274 276 274 276 284 288 289 292 295 295 294 nan nan nan nan nan nan nan nan nan nan
237 238 240 241 240 240 241 242 242 245 246 247 250 251 251 253 252 250 248 244 242 242 244 243 241 244 244 247 258 263 266 268 269 271 272 271 272 272 271 265 267 281 287 287 289 288 293 297 296 294 291 293 293 289 286 288 289 284 282 283 280 277 276 274 275 275 278 284 288 291 292 291 292 295 296 nan nan nan nan nan nan nan nan nan nan
232 232 233 238 237 237 237 240 241 242 245 246 248 250 250 249 249 254 255 255 253 252 250 247 245 239 245 251 255 263 267 270 271 273 273 274 274 274 270 269 269 265 267 275 282 281 286 288 289 289 289 290 291 291 293 291 286 287 287 287 288 283 277 279 280 281 283 285 288 289 289 292 295 295 295 296 297 297 nan nan nan nan nan nan nan
227 226 222 222 224 226 233 235 237 241 243 246 248 250 253 256 256 258 259 260 258 256 250 248 247 247 248 248 252 260 264 266 268 270 273 276 278 278 275 277 277 277 277 274 272 275 276 280 283 286 288 289 290 293 293 289 291 295 294 288 281 284 289 287 285 285 287 287 289 291 290 293 293 295 297 299 299 299 nan nan nan nan nan nan nan
228 229 231 233 235 230 226 233 235 237 241 245 246 248 250 255 259 259 257 257 257 254 253 253 254 254 252 252 253 254 257 261 263 266 271 276 277 271 273 280 281 280 280 279 277 278 279 278 279 281 283 286 289 288 286 287 286 282 280 281 284 282 278 277 280 284 283 284 287 288 290 293 296 297 297 297 298 nan nan nan nan nan nan nan nan
227 225 223 221 229 232 233 234 234 236 240 242 244 247 251 252 259 260 258 258 257 257 256 258 258 258 259 257 260 260 261 261 261 260 261 262 261 262 263 268 271 275 277 276 274 275 276 277 277 281 285 289 291 285 275 274 279 281 278 276 276 275 277 282 282 284 287 289 290 291 293 296 296 nan nan nan nan nan nan nan nan nan nan nan nan
228 225 220 217 221 225 229 232 235 238 241 241 239 245 250 252 257 261 259 259 261 262 265 265 264 262 262 263 263 265 266 265 265 266 267 266 266 267 267 269 272 273 275 275 274 273 275 276 278 280 282 285 286 280 277 277 278 281 282 282 281 283 286 289 290 289 289 292 292 294 295 nan nan nan nan nan nan nan nan nan nan nan nan nan nan
226 227 223 221 226 225 225 225 226 229 234 239 242 245 252 258 260 262 263 266 268 269 271 270 268 267 267 267 268 268 267 267 267 269 268 269 267 267 269 271 272 273 275 276 276 274 272 269 269 270 268 267 267 270 273 277 279 280 280 285 288 289 290 291 290 292 293 293 295 nan nan nan nan nan nan nan nan nan nan nan nan nan nan nan nan
225 227 228 227 225 227 226 227 229 230 233 237 242 248 251 255 258 261 266 269 270 272 273 270 267 262 261 263 258 255 267 269 271 269 270 271 271 270 270 273 274 274 273 271 270 270 270 269 268 269 268 270 270 269 272 273 277 282 284 285 284 285 285 287 290 293 294 nan nan nan nan nan nan nan nan nan nan nan nan nan nan nan nan nan nan
221 226 229 230 230 231 230 230 233 234 235 237 239 242 247 252 255 256 255 256 254 258 265 260 259 258 255 253 251 250 258 261 264 265 268 269 267 267 264 265 267 269 271 272 272 272 273 273 271 268 268 268 271 272 276 279 280 282 284 284 286 285 287 289 289 288 nan nan nan nan nan nan nan nan nan nan nan nan nan nan nan nan nan nan nan
222 226 228 229 231 232 232 232 233 236 237 239 240 241 242 247 252 253 254 254 254 256 258 258 259 258 257 255 255 256 260 262 264 267 268 269 269 269 268 267 266 267 268 269 270 272 272 268 267 267 266 265 263 264 265 265 264 264 268 272 271 272 273 272 278 285 nan nan nan nan nan nan nan nan nan nan nan nan nan nan nan nan nan nan nan
225 228 228 228 230 231 231 233 236 237 239 241 243 244 246 248 249 253 255 255 254 253 253 254 256 256 258 257 257 260 262 263 264 264 266 267 268 269 268 265 264 263 263 264 265 266 266 267 266 265 265 265 265 266 267 266 265 266 268 270 270 268 270 272 273 nan nan nan nan nan nan nan nan nan nan nan nan nan nan nan nan nan nan nan nan
nan nan nan nan nan nan nan nan 236 238 238 239 241 242 245 247 248 247 250 253 253 252 251 251 251 250 250 251 254 256 260 263 263 264 264 265 264 263 261 261 261 262 262 262 263 263 264 265 265 266 266 265 266 268 269 268 267 267 267 267 268 269 nan nan nan nan nan nan nan nan nan nan nan nan nan nan nan nan nan nan nan nan nan nan nan
nan nan nan nan nan nan nan nan 234 235 235 236 239 241 243 244 245 246 247 245 244 245 247 247 248 248 250 251 253 254 256 257 258 259 260 259 257 255 255 256 257 259 260 261 261 262 263 264 265 266 266 267 268 268 267 266 266 267 nan nan nan nan nan nan nan nan nan nan nan nan nan nan nan nan nan nan nan nan nan nan nan nan nan nan nan
nan nan nan nan nan nan nan nan nan 234 234 235 236 238 239 241 243 244 245 245 246 246 246 244 244 245 247 249 251 251 252 254 258 260 261 260 258 256 256 258 259 260 260 260 261 262 263 263 264 265 265 265 265 265 265 nan nan nan nan nan nan nan nan nan nan nan nan nan nan nan nan nan nan nan nan nan nan nan nan nan nan nan nan nan nan
nan nan nan nan nan nan nan nan nan nan 237 236 236 237 238 239 241 242 242 243 244 246 248 247 246 246 247 246 248 250 251 253 254 255 256 258 259 262 264 265 264 264 263 262 262 263 264 265 265 265 265 nan nan 266 268 nan nan nan nan nan nan nan nan nan nan nan nan nan nan nan nan nan nan nan nan nan nan nan nan nan nan nan nan nan nan
nan nan nan nan nan nan nan nan nan nan nan 241 241 240 240 241 241 242 242 243 245 247 248 249 249 249 249 249 249 250 251 252 253 255 258 261 263 265 266 266 266 265 263 262 262 262 262 263 264 265 266 267 nan nan nan nan nan nan nan nan nan nan nan nan nan nan nan nan nan nan nan nan nan nan nan nan nan nan nan nan nan nan nan nan nan
nan nan nan nan nan nan nan nan nan nan nan nan nan nan 244 243 243 243 244 245 246 247 248 248 250 250 251 251 251 251 252 253 253 254 256 258 259 259 257 255 256 258 260 261 262 263 263 263 263 264 265 nan nan nan nan nan nan nan nan nan nan nan nan nan nan nan nan nan nan nan nan nan nan nan nan nan nan nan nan nan nan nan nan nan nan
nan nan nan nan nan nan nan nan nan nan nan nan nan nan nan 245 244 243 244 245 246 246 247 248 249 249 250 251 253 253 253 254 254 255 255 254 255 255 254 255 256 259 261 261 262 262 262 262 262 262 nan 265 nan nan nan nan nan nan nan nan nan nan nan nan nan nan nan nan nan nan nan nan nan nan nan nan nan nan nan nan nan nan nan nan nan